Location: *
(46.4000°N, 12.6667°E)
Time: 03:29:19
(UTC+00:00)

ISS - Pass Details

Date: 04 December 2021
Orbit: 413 x 422 km, 51.6° (Epoch: 22 January)

Event Time Altitude Azimuth Distance (km) Brightness Sun altitude
Rises 18:27:58 0° 289° (WNW) 2,380 1.1 -31.0°
Reaches altitude 10° 18:30:24 10° 273° (W) 1,509 -0.1 -31.4°
Enters shadow 18:30:53 12° 267° (W) 1,367 -0.3 -31.5°
